Regional Weather Roundup
Issued by NWS Little Rock, AR

Home | Current Version | Previous Version | Text Only | Print | Product List | Glossary Off
Versions: 1 2 3 4 5 6 7 8 9 10 11 12 13 14 15 16 17 18 19 20 21 22 23 24 25 26 27 28 29 30 31 32 33 34 35 36 37 38 39 40 41 42 43 44 45 46 47 48 49 50

000
ASUS44 KLZK 270612
RWRLZK

WEATHER ROUNDUP FOR ARKANSAS
NATIONAL WEATHER SERVICE LITTLE ROCK AR
1200 AM CST MON FEB 27 2017

NOTE: "FAIR" INDICATES FEW OR NO CLOUDS BELOW 12,000 FEET WITH NO
SIGNIFICANT WEATHER AND/OR OBSTRUCTIONS TO VISIBILITY.

ARZ001-003-010-029-270700-
NORTHWEST ARKANSAS

CITY           SKY/WX    TMP DP  RH WIND       PRES   REMARKS
FAYETTEVILLE   CLEAR     34  31  88 CALM      30.00F
6HR MIN TEMP:  34; 6HR MAX TEMP:  50;

FORT SMITH     CLOUDY    50  35  56 NE7       30.01R
6HR MIN TEMP:  50; 6HR MAX TEMP:  52;

HARRISON       CLOUDY    44  29  55 E5        30.02F
6HR MIN TEMP:  44; 6HR MAX TEMP:  48;

BENTONVILLE    CLEAR     43  30  61 E3        30.01F
6HR MIN TEMP:  43; 6HR MAX TEMP:  48;

ROGERS         CLEAR     43  30  60 E7        30.01F
6HR MIN TEMP:  43; 6HR MAX TEMP:  47;

SILOAM SPGS    PTCLDY    43  27  52 E5        29.99F
6HR MIN TEMP:  43; 6HR MAX TEMP:  50;

HIGHFILL       PTCLDY    38  29  70 NE3       29.99F
6HR MIN TEMP:  37; 6HR MAX TEMP:  50;

$$

ARZ004-005-016-270700-
NORTH CENTRAL ARKANSAS

CITY           SKY/WX    TMP DP  RH WIND       PRES   REMARKS
BATESVILLE     CLOUDY    45  39  81 E12       30.05F
6HR MIN TEMP:  45; 6HR MAX TEMP:  50; 6HR PCP:  0.03;

FLIPPIN        CLOUDY    46  28  49 NE3       30.02F
6HR MIN TEMP:  46; 6HR MAX TEMP:  50;

MTN HOME       CLOUDY    45  29  53 E5        30.03F
6HR MIN TEMP:  45; 6HR MAX TEMP:  48;

$$

ARZ040-041-270700-
WEST CENTRAL ARKANSAS

CITY           SKY/WX    TMP DP  RH WIND       PRES   REMARKS
MENA           CLOUDY    50  45  81 CALM      29.98F
MOUNT IDA      PTCLDY    47  45  93 CALM      29.96F
6HR MIN TEMP:  47; 6HR MAX TEMP:  53; 6HR PCP:  0.05;

$$

ARZ009-017-025-026-028-270700-
NORTHEAST ARKANSAS

CITY           SKY/WX    TMP DP  RH WIND       PRES   REMARKS
CORNING        CLOUDY    48  41  76 SE13      30.09S
JONESBORO      LGT RAIN  47  44  90 NE5       30.09F
6HR MIN TEMP:  46; 6HR MAX TEMP:  53; 6HR PCP:  0.12;

NEWPORT        CLOUDY    46  44  93 E6        30.08F
6HR MIN TEMP:  46; 6HR MAX TEMP:  50;

WALNUT RIDGE   CLOUDY    46  39  76 SE9       30.07F
6HR MIN TEMP:  46; 6HR MAX TEMP:  52;

BLYTHEVILLE    LGT RAIN  50  42  74 E3        30.14R
6HR MIN TEMP:  49; 6HR MAX TEMP:  54; 6HR PCP:  0.09;

$$

ARZ022-023-033-042-044-270700-
CENTRAL ARKANSAS

CITY           SKY/WX    TMP DP  RH WIND       PRES   REMARKS
LITTLE ROCK    CLOUDY    47  47 100 CALM      30.05S
6HR MIN TEMP:  47; 6HR MAX TEMP:  55; 6HR PCP:  0.37;

N LITTLE ROCK    N/A     46  44  93 E6        30.06F
6HR MIN TEMP:  46; 6HR MAX TEMP:  54;

JACKSONVILLE   CLOUDY    46  46  99 E5        30.05S
6HR MIN TEMP:  46; 6HR MAX TEMP:  52; 6HR PCP:  0.13;

SEARCY         CLOUDY    46  45  96 E5        30.08F
6HR MIN TEMP:  46; 6HR MAX TEMP:  51; 6HR PCP:  0.09;

HOT SPRINGS    CLOUDY    48  47  96 E7        30.00F
6HR MIN TEMP:  48; 6HR MAX TEMP:  51; 6HR PCP:  0.29;

RUSSELLVILLE   CLOUDY    49  37  63 E6        30.00F
6HR MIN TEMP:  49; 6HR MAX TEMP:  51; 6HR PCP: TRACE;

CLINTON        CLOUDY    46  39  76 NW3       30.03S
$$

ARZ036-270700-
EAST ARKANSAS

CITY           SKY/WX    TMP DP  RH WIND       PRES   REMARKS
WEST MEMPHIS   LGT RAIN  50  45  83 N5        30.09R
6HR MIN TEMP:  50; 6HR MAX TEMP:  58; 6HR PCP:  0.04;

$$

ARZ050-053-066-070-073-270700-
SOUTHWEST ARKANSAS

CITY           SKY/WX    TMP DP  RH WIND       PRES   REMARKS
ARKADELPHIA    LGT RAIN  49  48  97 NE7       30.03R
6HR MIN TEMP:  49; 6HR MAX TEMP:  54; 6HR PCP:  0.41;

CAMDEN         HVY RAIN  48  46  93 N7        30.03R
TEXARKANA      RAIN      49  49 100 VRB6      30.00R
6HR MIN TEMP:  48; 6HR MAX TEMP:  54; 6HR PCP:  0.56;

EL DORADO      TSTM      52  52 100 N12       30.00R FOG
6HR MIN TEMP:  53; 6HR MAX TEMP:  63; 6HR PCP:  0.30;

DE QUEEN       PTCLDY    48  48 100 E5        29.95F
6HR MIN TEMP:  48; 6HR MAX TEMP:  54; 6HR PCP:  0.07;

$$

ARZ056-057-069-270700-
SOUTHEAST ARKANSAS

CITY           SKY/WX    TMP DP  RH WIND       PRES   REMARKS
PINE BLUFF     RAIN      48  46  93 N12       30.07R
6HR MIN TEMP:  48; 6HR MAX TEMP:  57; 6HR PCP:  0.40;

STUTTGART      CLOUDY    46  39  76 N14       30.10R
6HR MIN TEMP:  46; 6HR MAX TEMP:  57; 6HR PCP:  0.25;

MONTICELLO     CLOUDY    59  37  44 NW9       30.01R
6HR MIN TEMP:  58; 6HR MAX TEMP:  62;


$$





USA.gov is the U.S. government's official web portal to all federal, state and local government web resources and services.